User: anonymous   Login
Location: Navajo
(48.7922°N, 105.0603°W)
Time: 09:35:54
(UTC+00:00)
Language:

AO-73 - Orbit

View from above orbital plane
View from above orbital plane
View from above satellite
View from above satellite

Ground track
Ground track

The orbit data is extracted from the following two-line orbital elements,

1 39444U 13066AE  22177.89483237  .00001855  00000-0  22578-3 0  9999
2 39444  97.6239 151.3715 0056756   3.6861 356.4761 14.83467706462929
Epoch (UTC): 26 June 2022 21:28:33
Eccentricity: 0.0056756
inclination: 97.6239°
perigee height: 578 km
apogee height: 658 km
right ascension of ascending node: 151.3715°
argument of perigee: 3.6861°
revolutions per day: 14.83467706
mean anomaly at epoch: 356.4761°
orbit number at epoch: 46292

The dashed part of the orbit path shows where the satellite is in the earth's shadow,  

DLR